When you browse on this site, cookies collect data to enhance your experience and personalize the content and advertising you see.
Visit our Privacy Policy to learn more. By continuing to use the site, you agree to this use of cookies and data.
  • In Czech Republic
  • List of Countries
  • For 7 days
  • Water Temperature
  • Weather Map
  • Weather Widgets
  • user-avatar
    Login

    Hourly Weather Gjirokaster

    Today, 8 December, Sunday

    Time Temperature Precipitation Wind Pressure Humidity
    00:00 +5°C° 0 mm 1 mps 652 mmHg 90%
    01:00 +4°C° 0 mm 1 mps 652 mmHg 89%
    02:00 +4°C° 0 mm 1 mps 652 mmHg 88%
    03:00 +4°C° 0 mm 1 mps 651 mmHg 87%
    04:00 +4°C° 0 mm 1 mps 651 mmHg 86%
    05:00 +4°C° 0 mm 1 mps 651 mmHg 86%
    06:00 +4°C° 0 mm 1 mps 652 mmHg 86%
    07:00 +4°C° 0 mm 1 mps 652 mmHg 85%
    08:00 +5°C° 0 mm 1 mps 652 mmHg 81%
    09:00 +6°C° 0 mm 1 mps 653 mmHg 76%
    10:00 +8°C° 0 mm 1 mps 653 mmHg 72%
    11:00 +8°C° 0 mm 1 mps 653 mmHg 70%
    12:00 +8°C° 0 mm 2 mps 653 mmHg 68%
    13:00 +8°C° 0 mm 2 mps 653 mmHg 66%
    14:00 +7°C° 0 mm 2 mps 653 mmHg 70%
    15:00 +6°C° 0 mm 2 mps 652 mmHg 75%
    16:00 +6°C° 0 mm 1 mps 652 mmHg 79%
    17:00 +6°C° 0 mm 1 mps 652 mmHg 81%
    18:00 +5°C° 0 mm 1 mps 652 mmHg 84%
    19:00 +5°C° 0 mm 1 mps 652 mmHg 86%
    20:00 +4°C° 0 mm 1 mps 651 mmHg 85%
    21:00 +4°C° 0 mm 1 mps 651 mmHg 84%
    22:00 +4°C° 0 mm 1 mps 651 mmHg 83%
    23:00 +4°C° 0 mm 1 mps 651 mmHg 82%

    Tomorrow, 9 December, Monday

    Time Temperature Precipitation Wind Pressure Humidity
    00:00 +3°C° 0 mm 1 mps 651 mmHg 81%
    01:00 +3°C° 0 mm 1 mps 650 mmHg 79%
    02:00 +3°C° 0 mm 1 mps 650 mmHg 79%
    03:00 +3°C° 0 mm 1 mps 649 mmHg 79%
    04:00 +3°C° 0 mm 1 mps 649 mmHg 79%
    05:00 +3°C° 0 mm 1 mps 649 mmHg 80%
    06:00 +2°C° 0 mm 1 mps 649 mmHg 80%
    07:00 +2°C° 0 mm 1 mps 649 mmHg 81%
    08:00 +4°C° 0 mm 1 mps 649 mmHg 78%
    09:00 +5°C° 0 mm 1 mps 649 mmHg 75%
    10:00 +6°C° 0 mm 2 mps 649 mmHg 72%
    11:00 +6°C° 0 mm 2 mps 649 mmHg 71%
    12:00 +7°C° 0 mm 2 mps 649 mmHg 70%
    13:00 +7°C° 0 mm 2 mps 648 mmHg 69%
    14:00 +6°C° 0 mm 2 mps 648 mmHg 74%
    15:00 +6°C° 0 mm 2 mps 647 mmHg 79%
    16:00 +5°C° 0 mm 2 mps 647 mmHg 84%
    17:00 +4°C° 0 mm 2 mps 646 mmHg 85%
    18:00 +4°C° 0 mm 2 mps 646 mmHg 86%
    19:00 +4°C° 0 mm 2 mps 646 mmHg 87%
    20:00 +4°C° 0.5 mm 2 mps 646 mmHg 88%
    21:00 +4°C° 0.5 mm 2 mps 646 mmHg 88%
    22:00 +4°C° 0.5 mm 2 mps 645 mmHg 89%
    23:00 +4°C° 1.2 mm 2 mps 645 mmHg 90%

    Day after tomorrow, 10 December, Tuesday

    Time Temperature Precipitation Wind Pressure Humidity
    00:00 +4°C° 1.2 mm 2 mps 645 mmHg 90%
    01:00 +4°C° 1.2 mm 2 mps 645 mmHg 91%
    02:00 +4°C° 3.5 mm 2 mps 644 mmHg 92%
    03:00 +3°C° 3.5 mm 2 mps 644 mmHg 94%
    04:00 +4°C° 3.5 mm 1 mps 644 mmHg 95%
    05:00 +3°C° 1.9 mm 2 mps 644 mmHg 93%
    06:00 +3°C° 1.9 mm 2 mps 644 mmHg 92%
    07:00 +3°C° 1.9 mm 2 mps 644 mmHg 90%
    08:00 +3°C° 0.3 mm 2 mps 644 mmHg 89%
    09:00 +3°C° 0.3 mm 2 mps 644 mmHg 88%
    10:00 +3°C° 0.3 mm 2 mps 644 mmHg 86%
    11:00 +3°C° 0.4 mm 2 mps 644 mmHg 85%
    12:00 +3°C° 0.4 mm 2 mps 644 mmHg 85%
    13:00 +4°C° 0.4 mm 2 mps 643 mmHg 84%
    14:00 +4°C° 0.3 mm 1 mps 643 mmHg 85%
    15:00 +4°C° 0.3 mm 1 mps 643 mmHg 86%
    16:00 +4°C° 0.3 mm 1 mps 642 mmHg 88%
    17:00 +4°C° 0.2 mm 1 mps 642 mmHg 88%
    18:00 +4°C° 0.2 mm 1 mps 642 mmHg 88%
    19:00 +4°C° 0.2 mm 1 mps 642 mmHg 89%
    20:00 +4°C° 0.5 mm 1 mps 642 mmHg 89%
    21:00 +4°C° 0.5 mm 1 mps 643 mmHg 89%
    22:00 +3°C° 0.5 mm 2 mps 643 mmHg 90%
    23:00 +3°C° 0.6 mm 2 mps 643 mmHg 90%

    11 December, Wednesday

    Time Temperature Precipitation Wind Pressure Humidity
    00:00 +2°C° 0.6 mm 2 mps 643 mmHg 90%
    01:00 +2°C° 0.6 mm 2 mps 643 mmHg 90%
    02:00 +2°C° 0.1 mm 2 mps 642 mmHg 89%
    03:00 +2°C° 0.1 mm 2 mps 642 mmHg 89%
    04:00 +2°C° 0.1 mm 2 mps 642 mmHg 88%
    05:00 +2°C° 0 mm 2 mps 642 mmHg 87%
    06:00 +2°C° 0 mm 2 mps 643 mmHg 87%
    07:00 +2°C° 0 mm 2 mps 643 mmHg 86%
    08:00 +2°C° 0 mm 2 mps 643 mmHg 83%
    09:00 +3°C° 0 mm 2 mps 644 mmHg 79%
    10:00 +4°C° 0 mm 2 mps 645 mmHg 75%
    11:00 +4°C° 0 mm 2 mps 645 mmHg 72%
    12:00 +5°C° 0 mm 2 mps 645 mmHg 69%
    13:00 +5°C° 0 mm 2 mps 645 mmHg 66%
    14:00 +4°C° 0 mm 2 mps 645 mmHg 69%
    15:00 +4°C° 0 mm 2 mps 644 mmHg 71%
    16:00 +3°C° 0 mm 2 mps 644 mmHg 74%
    17:00 +3°C° 0 mm 2 mps 644 mmHg 76%
    18:00 +2°C° 0 mm 2 mps 644 mmHg 78%
    19:00 +1°C° 0 mm 2 mps 645 mmHg 80%
    20:00 +1°C° 0 mm 2 mps 645 mmHg 80%
    21:00 +1°C° 0 mm 2 mps 645 mmHg 80%
    22:00 +1°C° 0 mm 2 mps 645 mmHg 80%
    23:00 +1°C° 0 mm 2 mps 645 mmHg 79%

    12 December, Thursday

    Time Temperature Precipitation Wind Pressure Humidity
    00:00 +1°C° 0 mm 2 mps 644 mmHg 79%
    01:00 +2°C° 0 mm 1 mps 644 mmHg 78%
    02:00 +1°C° 0 mm 1 mps 644 mmHg 78%
    03:00 +1°C° 0 mm 1 mps 644 mmHg 78%
    04:00 +1°C° 0 mm 1 mps 644 mmHg 78%
    05:00 +1°C° 0 mm 1 mps 644 mmHg 78%
    06:00 +1°C° 0 mm 1 mps 644 mmHg 78%
    07:00 +1°C° 0 mm 1 mps 644 mmHg 78%
    08:00 +2°C° 0 mm 1 mps 645 mmHg 73%
    09:00 +4°C° 0 mm 1 mps 645 mmHg 69%
    10:00 +5°C° 0 mm 0 mps 646 mmHg 65%
    11:00 +6°C° 0 mm 1 mps 646 mmHg 65%
    12:00 +6°C° 0 mm 1 mps 646 mmHg 66%
    13:00 +5°C° 0 mm 2 mps 645 mmHg 66%
    14:00 +6°C° 0 mm 1 mps 645 mmHg 71%
    15:00 +5°C° 0 mm 1 mps 645 mmHg 76%
    16:00 +4°C° 0 mm 1 mps 645 mmHg 82%
    17:00 +4°C° 0 mm 1 mps 645 mmHg 83%
    18:00 +3°C° 0 mm 1 mps 645 mmHg 84%
    19:00 +3°C° 0 mm 1 mps 645 mmHg 86%
    20:00 +3°C° 0 mm 1 mps 645 mmHg 86%
    21:00 +3°C° 0 mm 1 mps 645 mmHg 87%
    22:00 +3°C° 0 mm 1 mps 644 mmHg 88%
    23:00 +2°C° 0 mm 1 mps 644 mmHg 88%

    13 December, Friday

    Time Temperature Precipitation Wind Pressure Humidity
    00:00 +1°C° 0 mm 0 mps 644 mmHg 88%
    01:00 +1°C° 0 mm 0 mps 644 mmHg 88%
    02:00 +2°C° 0 mm 1 mps 644 mmHg 88%
    03:00 +2°C° 0 mm 1 mps 643 mmHg 87%
    04:00 +2°C° 0 mm 1 mps 643 mmHg 87%
    05:00 +2°C° 0 mm 1 mps 643 mmHg 87%
    06:00 +1°C° 0 mm 1 mps 643 mmHg 87%
    07:00 +1°C° 0 mm 1 mps 643 mmHg 86%
    08:00 +1°C° 0 mm 0 mps 644 mmHg 82%
    09:00 +3°C° 0 mm 0 mps 644 mmHg 77%
    10:00 +4°C° 0 mm 0 mps 645 mmHg 72%
    11:00 +5°C° 0.1 mm 1 mps 645 mmHg 72%
    12:00 +5°C° 0.1 mm 1 mps 644 mmHg 71%
    13:00 +6°C° 0.1 mm 1 mps 644 mmHg 70%
    14:00 +5°C° 0.1 mm 1 mps 644 mmHg 74%
    15:00 +5°C° 0.1 mm 1 mps 644 mmHg 78%
    16:00 +4°C° 0.1 mm 1 mps 644 mmHg 82%
    17:00 +4°C° 0.1 mm 1 mps 644 mmHg 85%
    18:00 +3°C° 0.1 mm 1 mps 644 mmHg 87%
    19:00 +3°C° 0.1 mm 1 mps 644 mmHg 89%
    20:00 +3°C° 0 mm 1 mps 644 mmHg 89%
    21:00 +3°C° 0 mm 1 mps 643 mmHg 89%
    22:00 +3°C° 0 mm 1 mps 643 mmHg 89%
    23:00 +3°C° 0.7 mm 1 mps 643 mmHg 90%
    Show more